Regional Weather Roundup
Issued by NWS Wakefield, VA

Home | Current Version | Previous Version | Text Only | Print | Product List | Glossary Off
Versions: 1 2 3 4 5 6 7 8 9 10 11 12 13 14 15 16 17 18 19 20 21 22 23 24 25 26 27 28 29 30 31 32 33 34 35 36 37 38 39 40 41 42 43 44 45 46 47 48 49 50

000
ASUS41 KAKQ 200415
RWRAKQ

REGIONAL WEATHER ROUNDUP
NATIONAL WEATHER SERVICE WAKEFIELD VA
1200 AM EDT FRI OCT 20 2017

Note: "fair" indicates few or no clouds below 12,000 feet with no
significant weather and/or obstructions to visibility. * = Denotes
station may not report precipitation (e.g., rain,snow,etc.),
thunder or fog.

VAZ042-051-052>054-056-200500-
NORTHERN VIRGINIA

CITY           SKY/WX    TMP DP  RH WIND       PRES   REMARKS
WASH NATIONAL  FAIR      59  54  83 S5        30.18R
DULLES         FAIR      50  48  93 CALM      30.18R
FORT BELVOIR   FAIR      49  48  95 CALM      30.18R
QUANTICO       FAIR      53  52  96 NW7       30.19R
FREDERICKSBRG* FAIR      50  50 100 CALM      30.17S
STAFFORD*      FAIR      45  45 100 CALM      30.21S FOG
WARRENTON      FAIR      46  42  86 CALM      30.18S
CULPEPER*      FAIR      46  44  90 CALM      30.19S
MANASSAS*      FAIR      48  47  96 CALM      30.19R
LEESBURG*      FAIR      55  50  82 W3        30.19R
WINCHESTER     FAIR      52  41  66 W3        30.18S
FRONT ROYAL*   FAIR      50  45  81 MISG      30.18S
LURAY*         FAIR      50  45  81 CALM      30.21R
$$

VAZ048-049-060>072-079>083-200500-
CENTRAL AND SOUTH CENTRAL VIRGINIA

CITY           SKY/WX    TMP DP  RH WIND       PRES   REMARKS
RICHMOND       FAIR      55  45  68 CALM      30.18S
CHESTERFIELD*  NOT AVBL
PETERSBURG*    FAIR     N/A N/A N/A CALM      30.20S
HANOVER        FAIR      50  49  96 CALM      30.19S
TAPPAHANNOCK*  FAIR     N/A N/A N/A CALM      30.18S
QUINTON*       FAIR      48  48 100 CALM      30.18S
CHARLOTTSVILLE FAIR      54  49  83 CALM      30.19R
GORDONSVILLE*  FAIR      47  47  99 SW3       30.18R
ORANGE*        FAIR      45  45 100 CALM      30.18S
LOUISA*        FAIR      52  45  76 SW3       30.18R
BUMPASS*       FAIR      49  49  98 CALM      30.18R
FARMVILLE*     FAIR      47  47 100 CALM      30.18S
CREWE*         FAIR      45  45 100 CALM      30.19S
FORT PICKETT*  FAIR      49  48  99 CALM      30.19F
CHASE CITY*    FAIR      49  45  87 CALM      30.20F
CLARKSVILLE*   FAIR      46  46 100 CALM      30.21S
SOUTH HILL*    FAIR      47  46  95 CALM      30.26S
LAWRENCEVILLE* FAIR      47  46  95 CALM      30.20S
EMPORIA*       FAIR      45  45 100 CALM      30.21S
$$

VAZ088>098-200500-
SOUTHEAST VIRGINIA

CITY           SKY/WX    TMP DP  RH WIND       PRES   REMARKS
NORFOLK        FAIR      58  57  97 S3        30.19S
VIRGINIA BEACH FAIR      57  54  89 SW3       30.18S
NORFOLK NAVAL  FAIR      59  56  89 CALM      30.20S
WEST POINT*    FAIR      48  48 100 CALM      30.19F
SALUDA*        FAIR      54  53  97 CALM      30.17F
NEWPORT NEWS   FOG       50  48  93 CALM      30.19R VSB 1/2
LANGLEY AFB    CLEAR     56  56  98 W6        30.18S
FORT EUSTIS    FAIR      56  51  83 CALM      30.16S
WILLIAMSBURG*  FAIR      55  54  94 CALM      30.19S
HR EXEC AP*    NOT AVBL
FRANKLIN*      FAIR      48  47  95 CALM      30.20S FOG
US460-WAKEFLD  FAIR      51  49  92 CALM      30.19S
$$

VAZ020-022-025-037-045-200500-
WEST CENTRAL AND SOUTHWEST VIRGINIA

CITY           SKY/WX    TMP DP  RH WIND       PRES   REMARKS
STAUNTON*      FAIR      46  39  78 CALM      30.24R
WAYNESBORO*    FAIR      56  42  60 SW5       30.23R
HOT SPRINGS VA FAIR      54  36  49 W12       30.29S
LYNCHBURG      FAIR      50  45  83 SW3       30.21S
DANVILLE       FAIR      48  48 100 W3        30.22F
SOUTH BOSTON*  FAIR      45  44  95 CALM      30.21S
MARTINSVILLE   FAIR      44  43  97 CALM      30.26S
ROANOKE        FAIR      54  46  74 CALM      30.26R
BLACKSBURG     FAIR      55  42  61 W3        30.30S
DUBLIN*        FAIR      50  43  78 CALM      30.29S
MARION*        FAIR      50  40  68 W12       30.32F
HILLSVILLE*    FAIR      51  35  54 CALM      30.28S
RICHLANDS*     FAIR      56   2  11 CALM      30.32S
WISE*          FAIR      55  43  62 CALM      30.33R
ABINGDON*      FAIR      49  43  77 CALM      30.31R
$$

MDZ021>025-VAZ099-100-200500-
SOUTHERN MARYLAND AND THE DELMARVA PENINSULA

CITY           SKY/WX    TMP DP  RH WIND       PRES   REMARKS
PATUXENT RIVER FAIR      49  47  93 SW6       30.16S
BAY BRIDGE APT FAIR      63  52  67 SW5       30.16R
LEONARDTOWN    NOT AVBL
DOVER          CLEAR     55  52  88 S6        30.14S
GEORGETOWN     FAIR      49  47  93 SW3       30.17R
EASTON         FAIR      55  53  93 CALM      30.19S
CAMBRIDGE      CLEAR     50  50 100 CALM      30.17R FOG
SALISBURY      FAIR      53  53 100 CALM      30.16F
OCEAN CITY     FAIR      57  55  93 SW8       30.17S FOG
WALLOPS ISLAND FAIR      59  58  96 SW8       30.18S
ACCOMACK*      FAIR      58  57  99 S6        30.18S
$$

NCZ012>017-030>032-200500-
NORTH CENTRAL AND EASTERN NORTH CAROLINA

CITY           SKY/WX    TMP DP  RH WIND       PRES   REMARKS
ROANOKE RAPIDS FAIR      50  50 100 CALM      30.21S
RALEIGH        FAIR      50  48  93 CALM      30.23S
ELIZABETH CITY FAIR      56  56 100 SW5       30.20S
AHOSKIE*       FAIR      49  49 100 CALM      30.21S
EDENTON*       FAIR      56  54  92 CALM      30.21S
CURRITUCK*     FAIR      57  57  99 CALM      30.20S
KILL DEVIL HLS FAIR      62  61  96 CALM      30.19S
MANTEO         FAIR     N/A N/A N/A CALM      30.20S HAZE
CAPE HATTERAS  FAIR      59  59 100 N3        30.20S
TARBORO*       NOT AVBL
GOLDSBORO      FAIR      55  52  91 CALM      30.20S FOG
WASHINGTON     FAIR      55  54  97 CALM      30.21S
GREENVILLE     FOG       54  54 100 CALM      30.22S VSB 3/4
NEW BERN       FAIR      57  57 100 CALM      30.22S
WILMINGTON     FAIR      60  59  96 CALM      30.22S
$$

VAZ048-200500-
ELSEWHERE

CITY           SKY/WX    TMP DP  RH WIND       PRES   REMARKS
HARRISBURG PA  FAIR      53  50  89 CALM      30.14S
BALTIMORE      FAIR      52  49  89 W3        30.16R
ANNAPOLIS      FAIR      59  55  87 W3        30.15F
ANDREWS AFB    FAIR      55  48  76 SW6       30.16R
PHILADELPHIA   FAIR      59  50  72 SW9       30.14R
HENDERSON NC   FAIR      46  42  85 W3        30.21F
GREENSBORO     FAIR      51  46  83 SW5       30.23F
ROCKY MOUNT    FAIR      51  51 100 SW3       30.21F FOG
$$

VAZ100-200500-
MARINE

STATION/POSITION TIME  TEMP    WIND        PRES    WAVE   SWELL
                       AIR SEA DIR/SP/G            HT/PER HT/PER
                 (UTC) (F)     (DEG/KT/KT) (MB)    (FT/S) (FT/S)
BRANDYWINE LGT   0336   64     270/ 12/ 13 1021.3R
CAPE MAY NJ      0342   63 65  250/  9/ 10 1020.6R
LEWES DE         0336   57 65  240/  5/  7 1021.0R
15NM E FENWICK I 0350   67 67  230/ 14/ 16 1021.7R   3/ 9   3/ 9
OCEAN-CITY-INLET 0336   60 67  240/  5/  7 1021.9R
WACHAPREAGUE VA  0336   61 65  240/  4/  5 1022.0S
THOMAS POINT MD  0400   63 67  240/  9/ 10   N/A
GOOSES REEF MD   0400   67 68  260/ 10/ 12 1020.8    1
COVE POINT MD    0336   66     250/  5/  9 1021.9F
SOLOMONS ISLAND  0336   62 69  230/  3/  4 1021.2R
BISHOPS HEAD MD  0336   65 65  210/  7/  7 1021.7F
PINEY POINT MD   0336          240/  5/  7   N/A
POTOMAC MD       0400   65 69  230/  8/ 10 1020.9
CAMBRIDGE MD     0336   56 67              1022.1R
LEWISETTA VA     0336   60 65  250/  4/  4 1021.5S
RAPPAHANNOCK LGT 0336          220/ 12/ 12 1022.4S
STINGRAY PT      0400   65 69  260/  8/ 10 1022.1    1
YORK RVR RNG VA  0336   66     250/  6/  7 1022.6R
YORKTOWN VA      0336   62 70  230/  3/  4 1021.9R
JAMESTOWN VA     0400      69  270/  4/  6   N/A     0
DOMINION TERM VA 0336   65     230/  6/  8 1022.3S
KIPTOPEKE VA     0336      69  210/  9/ 10   N/A
CAPE HENRY VA    0336   62     200/  8/  9   N/A
WILLOUBY STN VA  0336   65     220/  8/  9 1022.1R
S CRANEY ISL VA  0336   63     240/  3/  5 1022.0F
CAPE HENRY BUOY  0330      70                N/A     3/10
1ST LANDING BUOY 0400   65 69              1022.2    1/ 4
CAPE CHARLES BUO 0351      70                N/A     2/ 9
64NM E OF VA BCH 0350   68 68  190/  4/  6 1022.6F   3/ 9   3/ 9
DUCK PIER NC     0336   65 70  220/  5/  5 1022.1S
44100 DUCK FRF   0335      70                N/A     3/ 9
44056 DUCK FRF   0400      70                N/A     3/ 9
OREGON INLET NC  0348          210/  2/  2   N/A
HATTERAS NC      0336   67 70   10/  2/  3 1022.5S
DIAMOND SHLS NC  0350   74 81   50/  4/  6 1022.2F   4/ 9   3/ 9
CAPE LOOKOUT NC  0400   67     330/  5/  6 1022.4S
$$



USA.gov is the U.S. government's official web portal to all federal, state and local government web resources and services.